This demonstration page uses our WeatherBlox Daily Observations layout. Learn more.

Left ArrowRight Arrow

41.12389, -100.76542

Hourly Observations for December 1, 2021

Temp ( °F °C ) Dew Point ( °F °C ) Humidity (%) Winds ( mph kmh ) Pressure ( in mb ) Visibility ( mi km ) Precip ( " mm )
12:53 am 00:53 Clear 35 1.7 29 -1.7 78 78 WNW 8 13 30.01 1016 10 16 0.00 0.00
1:53 am 01:53 Clear 31 -0.6 27 -2.8 85 85 NW 7 11 30.03 1017 10 16 0.00 0.00
2:53 am 02:53 Clear 29 -1.7 25 -3.9 85 85 NW 6 9 30.04 1017 10 16 0.00 0.00
3:53 am 03:53 Clear 28 -2.2 25 -3.9 88 88 NW 3 6 30.05 1018 10 16 0.00 0.00
4:53 am 04:53 Clear 27 -2.8 23 -5 85 85 NW 7 11 30.05 1018 10 16 0.00 0.00
5:53 am 05:53 Clear 28 -2.2 23 -5 81 81 NW 6 9 30.06 1018 10 16 0.00 0.00
6:53 am 06:53 Clear 27 -2.8 23 -5 85 85 NW 8 13 30.06 1018 10 16 0.00 0.00
7:53 am 07:53 Sunny 27 -2.8 23 -5 85 85 WNW 5 7 30.07 1018 10 16 0.00 0.00
8:53 am 08:53 Sunny 32 0 27 -2.8 82 82 WNW 6 9 30.07 1018 10 16 0.00 0.00
9:53 am 09:53 Sunny 43 6.1 31 -0.6 63 63 W 8 13 30.05 1018 10 16 0.00 0.00
10:53 am 10:53 Sunny 54 12.2 28 -2.2 37 37 W 10 17 30.04 1017 10 16 0.00 0.00
11:53 am 11:53 Sunny 61 16.1 27 -2.8 27 27 W 17 28 30.01 1016 10 16 0.00 0.00
12:53 pm 12:53 Sunny 62 16.7 27 -2.8 26 26 W 18 30 29.98 1015 10 16 0.00 0.00
1:53 pm 13:53 Sunny 64 17.8 28 -2.2 26 26 W 12 19 29.95 1014 10 16 0.00 0.00
2:53 pm 14:53 Sunny 68 20 29 -1.7 23 23 W 13 20 29.94 1014 10 16 0.00 0.00
3:53 pm 15:53 Sunny 70 21.1 29 -1.7 22 22 W 13 20 29.94 1014 10 16 0.00 0.00
4:53 pm 16:53 Sunny 64 17.8 30 -1.1 28 28 W 12 19 29.96 1015 10 16 0.00 0.00
5:53 pm 17:53 Clear 53 11.7 30 -1.1 41 41 W 7 11 29.99 1016 10 16 0.00 0.00
6:53 pm 18:53 Clear 48 8.9 30 -1.1 50 50 WNW 6 9 30.01 1016 10 16 0.00 0.00
7:53 pm 19:53 Clear 43 6.1 29 -1.7 58 58 NW 6 9 30.02 1017 10 16 0.00 0.00
8:53 pm 20:53 Clear 43 6.1 30 -1.1 60 60 NW 8 13 30.01 1016 10 16 0.00 0.00
9:53 pm 21:53 Clear 41 5 30 -1.1 65 65 NW 8 13 30.00 1016 10 16 0.00 0.00
10:53 pm 22:53 Clear 40 4.4 30 -1.1 68 68 NW 7 11 29.99 1016 10 16 0.00 0.00
11:53 pm 23:53 Clear 38 3.3 30 -1.1 73 73 NW 7 11 29.98 1015 10 16 0.00 0.00

Powered by AerisWeather